Location: Chuathbaluk
(61.5726°N, 159.2454°W)
Time: 13:26:41
(UTC+00:00)

NUDT-PHONESAT - Pass Details

Date: 21 January 2021
Orbit: 480 x 498 km, 97.4° (Epoch: 01 March)

Event Time Altitude Azimuth Distance (km) Brightness Sun altitude
Rises 03:34:02 0° 149° (SSE) 2,574 ? -9.0°
Reaches altitude 10° 03:36:07 10° 146° (SE) 1,698 ? -9.2°
Maximum altitude 03:39:42 57° 68° (ENE) 598 ? -9.6°
Drops below altitude 10° 03:43:21 10° 349° (N) 1,720 ? -10.0°
Sets 03:45:28 0° 345° (NNW) 2,610 ? -10.2°
